RORVIK / RYUM current weather conditions

sailwx.info

Wind from 090 at 4 knots

Air temperature 3.0° C
Dewpoint -1.0° C

Last reported at 2014-Nov-27 21:20 UTC.
Time now 2014-Nov-28 04:17 UTC

Location: N 64°50' E 011°09'.
View on Google Maps.

See reports from other nearby stations

  
Tides and Currents Weather Stations Pressure Air Temp Water Temp Dewpoint Dewpoint Depression Visibility Wind Speed Wind Dir Waves Ship Positions
date/time (UTC)wind fromknots sea level pressurealtimeterstation pressurevisibilityair tempwater tempwave heightnotes
2014-Nov-27 21:20 090 4 3.0
2014-Nov-27 20:50 080 4 5.4 4.0
2014-Nov-27 20:20 090 4 4.0
2014-Nov-27 19:50 090 5 5.4 4.0
2014-Nov-27 18:50 100 6 5.4 4.0
2014-Nov-27 17:50 050 5 5.4 5.0
2014-Nov-27 17:20 070 5 5.0
2014-Nov-27 16:50 040 6 5.4 5.0
2014-Nov-27 16:20 110 6 5.0
2014-Nov-27 14:50 110 6 5.4 5.0
2014-Nov-27 13:50 120 6 5.4 6.0
2014-Nov-27 13:20 130 9 6.0
2014-Nov-27 12:50 100 6 5.4 6.0
2014-Nov-27 12:20 130 8 6.0
2014-Nov-27 11:50 100 6 6.0
2014-Nov-27 11:20 110 7 6.0
2014-Nov-27 10:50 110 8 5.0
2014-Nov-27 10:20 090 7 5.0
2014-Nov-27 09:50 130 8 6.0
2014-Nov-27 09:20 130 9 6.0
2014-Nov-27 08:50 130 9 5.4 6.0
2014-Nov-27 08:20 140 10 6.0
2014-Nov-27 07:50 140 9 5.4 6.0
2014-Nov-27 07:20 130 9 6.0
2014-Nov-27 06:50 110 5 5.4 5.0
2014-Nov-27 06:20 100 6 5.0
2014-Nov-27 05:50 110 6 5.4 5.0
2014-Nov-27 05:20 100 6 5.0
2014-Nov-27 04:50 140 6 5.4 5.0
2014-Nov-26 21:20 150 9 4.0
2014-Nov-26 20:50 150 9 4.0
2014-Nov-26 19:50 140 8 5.4 4.0
2014-Nov-26 18:50 160 9 5.4 5.0
2014-Nov-26 17:50 080 3 2.0
2014-Nov-26 17:20 130 3 4.0
2014-Nov-26 16:50 110 5 5.4 4.0
2014-Nov-26 16:20 100 11 4.0
2014-Nov-26 15:50 100 10 4.0
2014-Nov-26 14:50 090 5 4.0
2014-Nov-26 13:50 130 9 5.4 5.0
2014-Nov-26 13:20 130 8 5.4 5.0
2014-Nov-26 12:50 130 6 5.4 6.0
2014-Nov-26 11:50 100 6 5.4 6.0
2014-Nov-26 11:20 110 6 5.4 6.0
2014-Nov-26 10:50 120 5 5.4 6.0
2014-Nov-26 10:20 170 6 5.4 7.0
2014-Nov-26 09:50 190 7 5.4 7.0
2014-Nov-26 09:20 190 8 5.4 7.0
2014-Nov-26 08:50 210 12 5.4 7.0
2014-Nov-26 08:20 210 5 5.4 6.0 Showers in the vicinity.
2014-Nov-26 07:50 5.4 3.0
2014-Nov-26 07:20 5.4 4.0
2014-Nov-26 06:50 260 4 5.4 6.0
2014-Nov-26 06:20 230 12 5.4 7.0 Showers in the vicinity.
2014-Nov-26 05:50 270 6 5.4 7.0 Light rain showers.
2014-Nov-26 05:20 240 10 5.4 7.0 Light rain showers.
2014-Nov-26 04:50 250 7 5.4 7.0 Light rain showers.